User: anonymous
Location: Unspecified
(0.0000°N, 0.0000°E)
Time: 20:52:34
(UTC+02:00)
Language:

ATLAS 2AS CENTAUR R/B - Orbit

View from above orbital plane
View from above orbital plane
View from above satellite
View from above satellite

Ground track
Ground track

The orbit data is extracted from the following two-line orbital elements,

1 28096U 03054B   14239.83586696 0.00000000  00000-0  00000-0 0    00
2 28096  63.6690 126.7734 0250000 293.7970  66.2030 13.40746688    05
Epoch (UTC): 27 August 2014 20:03:38
Eccentricity: 0.0250000
inclination: 63.6690°
perigee height: 919 km
apogee height: 1293 km
right ascension of ascending node: 126.7734°
argument of perigee: 293.7970°
revolutions per day: 13.40746688
mean anomaly at epoch: 66.2030°
orbit number at epoch: 0

The dashed part of the orbit path shows where the satellite is in the earth's shadow,  

DLR